Location: *
(52.2090°N, 4.1550°W)
Time: 05:47:26
(UTC+00:00)

Cosmos 1633 - Pass Details

Date: 19 July 2019
Orbit: 466 x 482 km, 82.5° (Epoch: 19 August)

Event Time Altitude Azimuth Distance (km) Brightness Sun altitude
Exits shadow 22:31:25 20° 126° (SE) 1,148 3.9 -13.1°
Maximum altitude 22:32:49 26° 90° (E) 972 3.8 -13.2°
Drops below altitude 10° 22:35:51 10° 33° (NNE) 1,650 5.7 -13.4°
Sets 22:38:10 0° 20° (NNE) 2,537 6.9 -13.5°
